Weather History for Orlando, FL

Change the Weather History Date:

Thursday, January 31, 2013

  Actual Average Record
Temperature  
Mean Temperature 62 °F -  
Max Temperature 71 °F 68 °F 84 °F (2002)
Min Temperature 51 °F 50 °F 41 °F (2009)
Degree Days  
Heating Degree Days 4    
Growing Degree Days 12 (Base 50)    
Moisture  
Dew Point 42 °F    
Average Humidity 59    
Maximum Humidity 94    
Minimum Humidity 23    
Precipitation  
Precipitation 0.08 in - - ()
Sea Level Pressure  
Sea Level Pressure 30.10 in    
Wind  
Wind Speed 13 mph (NW)    
Max Wind Speed 23 mph    
Max Gust Speed 39 mph    
Visibility 9 miles    
Events Rain    
Averages and records for this station are not official NWS values.
T = Trace of Precipitation, MM = Missing Value Source: NWS Daily Summary

Daily Weather History Graph

Daily Weather History Graph

Search for Another Location

Airport:

Trip Planner

Search our weather history database for the weather conditions in past years. The results will help you decide how hot, cold, wet, or windy it might be!

Date:

Astronomy

Jan. 31, 2013 Rise Set
Actual Time 7:13 AM EST 6:04 PM EST
Civil Twilight 6:48 AM EST 6:29 PM EST
Nautical Twilight 6:20 AM EST 6:57 PM EST
Astronomical Twilight 5:52 AM EST 7:25 PM EST
Moon 10:34 PM EST 9:39 AM EST
Length of Visible Light 11h 40m
Length of Day
10h 50m
Waning Gibbous, 80% of the Moon is Illuminated
Jan 31
Waning Gibbous
Feb 3
Last Quarter
Feb 10
New
Feb 17
First Quarter
Feb 25
Full

Hourly Weather History & Observations

Time (EST) Temp. Dew Point Humidity Pressure Visibility Wind Dir Wind Speed Gust Speed Precip Events Conditions
12:53 AM 71.1 °F 64.0 °F 78% 29.92 in 10.0 mi South 16.1 mph - N/A   Partly Cloudy
1:50 AM 64.4 °F 59.0 °F 83% 29.96 in 9.0 mi West 23.0 mph 39.1 mph 0.00 in Rain Light Rain
1:53 AM 64.0 °F 59.0 °F 84% 29.98 in 7.0 mi West 23.0 mph 32.2 mph 0.01 in Rain Rain
2:00 AM 62.6 °F 59.0 °F 88% 29.97 in 8.0 mi WNW 18.4 mph 32.2 mph 0.00 in Rain Light Rain
2:33 AM 60.8 °F 57.2 °F 88% 29.97 in 9.0 mi West 17.3 mph 23.0 mph 0.01 in Rain Light Rain
2:53 AM 60.1 °F 57.0 °F 90% 29.99 in 5.0 mi WNW 13.8 mph - 0.02 in Rain Light Rain
3:03 AM 59.0 °F 57.2 °F 94% 29.99 in 5.0 mi WNW 13.8 mph - 0.01 in Rain Light Rain
3:35 AM 57.2 °F 53.6 °F 88% 30.01 in 5.0 mi WNW 10.4 mph 21.9 mph 0.03 in Rain Light Rain
3:51 AM 57.2 °F 53.6 °F 88% 30.01 in 7.0 mi NW 9.2 mph - 0.04 in Rain Light Rain
3:52 AM 57.0 °F 54.0 °F 89% 30.03 in 7.0 mi NW 9.2 mph - 0.04 in Rain Light Rain
4:01 AM 55.4 °F 51.8 °F 88% 30.01 in 8.0 mi NW 10.4 mph 20.7 mph 0.00 in Rain Light Rain
4:53 AM 55.9 °F 52.0 °F 87% 30.03 in 10.0 mi WNW 6.9 mph - 0.00 in Rain Light Rain
5:53 AM 57.0 °F 52.0 °F 83% 30.04 in 9.0 mi NW 5.8 mph - 0.01 in Rain Light Rain
6:53 AM 57.9 °F 50.0 °F 75% 30.06 in 10.0 mi NW 9.2 mph - 0.00 in   Overcast
7:53 AM 57.0 °F 48.0 °F 72% 30.11 in 10.0 mi NW 9.2 mph - N/A   Scattered Clouds
8:53 AM 57.0 °F 45.0 °F 64% 30.14 in 10.0 mi NW 11.5 mph - N/A   Clear
9:53 AM 59.0 °F 43.0 °F 55% 30.15 in 10.0 mi NNW 9.2 mph - N/A   Clear
10:53 AM 59.0 °F 34.0 °F 39% 30.17 in 10.0 mi NW 10.4 mph - N/A   Clear
11:53 AM 61.0 °F 33.1 °F 35% 30.17 in 10.0 mi NW 8.1 mph 17.3 mph N/A   Clear
12:53 PM 62.1 °F 27.0 °F 26% 30.15 in 10.0 mi WNW 11.5 mph 17.3 mph N/A   Clear
1:53 PM 63.0 °F 30.0 °F 29% 30.14 in 10.0 mi WNW 12.7 mph 19.6 mph N/A   Clear
2:53 PM 63.0 °F 27.0 °F 26% 30.15 in 10.0 mi WNW 13.8 mph - N/A   Clear
3:53 PM 63.0 °F 26.1 °F 25% 30.16 in 10.0 mi WNW 11.5 mph 18.4 mph N/A   Clear
4:53 PM 63.0 °F 24.1 °F 23% 30.16 in 10.0 mi WNW 9.2 mph - N/A   Clear
5:53 PM 60.1 °F 25.0 °F 26% 30.17 in 10.0 mi WNW 8.1 mph - N/A   Clear
6:53 PM 57.0 °F 25.0 °F 29% 30.18 in 10.0 mi WNW 5.8 mph - N/A   Clear
7:53 PM 57.0 °F 25.0 °F 29% 30.22 in 10.0 mi NW 5.8 mph - N/A   Clear
8:53 PM 55.9 °F 25.0 °F 30% 30.23 in 10.0 mi NNW 4.6 mph - N/A   Clear
9:53 PM 54.0 °F 25.0 °F 33% 30.25 in 10.0 mi North 6.9 mph - N/A   Clear
10:53 PM 52.0 °F 27.0 °F 38% 30.26 in 10.0 mi NW 4.6 mph - N/A   Clear
11:53 PM 51.1 °F 27.0 °F 39% 30.26 in 10.0 mi NNW 4.6 mph - N/A   Clear